Alicante, Spain

8:51 AM CEST on August 20, 2017 (GMT +0200)
Alicante

Weather History for LEAL - October, 2011

Change the Weather History Date:

Saturday, October 8, 2011

  Actual Average Record
Temperature  
Mean Temperature 70 °F -  
Max Temperature 76 °F 72 °F 85 °F (2012)
Min Temperature 62 °F 56 °F 55 °F (1996)
Cooling Degree Days 6    
Growing Degree Days 20 (Base 50)    
Moisture  
Dew Point 50 °F    
Average Humidity 50    
Maximum Humidity 77    
Minimum Humidity 20    
Precipitation  
Precipitation 0.00 in - - ()
Sea Level Pressure  
Sea Level Pressure 30.15 in    
Wind  
Wind Speed 6 mph ()    
Max Wind Speed 14 mph    
Max Gust Speed 16 mph    
Visibility 6.9 miles    
Events      
Averages and records for this station are not official NWS values.
T = Trace of Precipitation, MM = Missing Value Source: Averaged Metar Reports

Daily Weather History Graph

Daily Weather History Graph

Search for Another Location

Airport or City:

Trip Planner

Search our weather history database for the weather conditions in past years. The results will help you decide how hot, cold, wet, or windy it might be!

Date:

Astronomy

Oct. 08, 2011 Rise Set
Actual Time 8:03 AM CEST 7:35 PM CEST
Civil Twilight 7:37 AM CEST 8:01 PM CEST
Nautical Twilight 7:06 AM CEST 8:32 PM CEST
Astronomical Twilight 6:36 AM CEST 9:02 PM CEST
Moon 5:37 PM CEST (10/8) 4:39 AM CEST (10/8)
Length of Visible Light 12h 24m
Length of Day
11h 31m
Waxing Gibbous, 88% of the Moon is Illuminated
Oct 8
Waxing Gibbous
Oct 12
Full
Oct 20
Last Quarter
Oct 26
New
Nov 2
First Quarter

Hourly Weather History & Observations

Time (CEST) Temp. Dew Point Humidity Pressure Visibility Wind Dir Wind Speed Gust Speed Precip Events Conditions
12:00 AM 73.4 °F 60.8 °F 65% 30.09 in 6.2 mi NE 11.5 mph - N/A   Partly Cloudy
12:30 AM 71.6 °F 59.0 °F 64% 30.12 in 6.2 mi NNE 8.1 mph - N/A   Partly Cloudy
1:00 AM 71.6 °F 59.0 °F 64% 30.12 in 6.2 mi North 6.9 mph - N/A   Partly Cloudy
1:30 AM 71.6 °F 57.2 °F 60% 30.12 in 6.2 mi NNE 6.9 mph - N/A   Partly Cloudy
2:00 AM 69 °F 52 °F 45% 30.12 in 12 mi North 4.6 mph - -   Scattered Clouds
2:00 AM 69.8 °F 55.4 °F 60% 30.09 in 6.2 mi North 4.6 mph - N/A   Partly Cloudy
2:30 AM 68.0 °F 55.4 °F 64% 30.09 in 6.2 mi North 3.5 mph - N/A   Partly Cloudy
3:00 AM 68.0 °F 53.6 °F 60% 30.09 in 6.2 mi Variable 2.3 mph - N/A   Partly Cloudy
3:30 AM 68.0 °F 53.6 °F 60% 30.09 in 6.2 mi North 3.5 mph - N/A   Partly Cloudy
4:00 AM 68.0 °F 51.8 °F 56% 30.09 in 6.2 mi North 5.8 mph - N/A   Partly Cloudy
4:30 AM 68.0 °F 50.0 °F 52% 30.09 in 6.2 mi North 10.4 mph - N/A   Partly Cloudy
5:00 AM 66.2 °F 50.0 °F 56% 30.12 in 6.2 mi North 5.8 mph - N/A   Partly Cloudy
5:30 AM 68.0 °F 48.2 °F 49% 30.12 in 6.2 mi NNE 8.1 mph - N/A   Partly Cloudy
6:00 AM 68.0 °F 44.6 °F 43% 30.12 in 6.2 mi North 5.8 mph - N/A   Partly Cloudy
6:30 AM 68.0 °F 42.8 °F 40% 30.12 in 6.2 mi North 3.5 mph - N/A   Partly Cloudy
7:00 AM 68.0 °F 41.0 °F 37% 30.12 in 6.2 mi NNE 3.5 mph - N/A   Partly Cloudy
7:30 AM 66.2 °F 41.0 °F 40% 30.12 in 6.2 mi North 3.5 mph 16.1 mph N/A   Partly Cloudy
8:00 AM 66 °F 37 °F 22% 30.16 in 19 mi North 5.8 mph - -   Partly Cloudy
8:00 AM 66.2 °F 39.2 °F 37% 30.15 in 6.2 mi North 4.6 mph - N/A   Scattered Clouds
8:30 AM 66.2 °F 41.0 °F 40% 30.15 in 6.2 mi North 5.8 mph - N/A   Mostly Cloudy
9:00 AM 68.0 °F 41.0 °F 37% 30.15 in 6.2 mi North 5.8 mph - N/A   Mostly Cloudy
9:30 AM 68.0 °F 42.8 °F 40% 30.18 in 6.2 mi North 5.8 mph - N/A   Mostly Cloudy
10:00 AM 68.0 °F 42.8 °F 40% 30.18 in 6.2 mi North 6.9 mph - N/A   Mostly Cloudy
10:30 AM 69.8 °F 42.8 °F 38% 30.21 in 6.2 mi North 5.8 mph - N/A   Mostly Cloudy
11:00 AM 71.6 °F 42.8 °F 35% 30.21 in 6.2 mi North 5.8 mph - N/A   Mostly Cloudy
11:30 AM 71.6 °F 42.8 °F 35% 30.21 in 6.2 mi Variable 2.3 mph - N/A   Mostly Cloudy
12:00 PM 73.4 °F 42.8 °F 33% 30.21 in - Variable 1.2 mph - N/A   Clear
12:30 PM 73.4 °F 42.8 °F 33% 30.21 in - Calm Calm - N/A   Clear
1:00 PM 75.2 °F 42.8 °F 31% 30.21 in - ESE 3.5 mph - N/A   Clear
1:30 PM 75.2 °F 42.8 °F 31% 30.18 in - Variable 2.3 mph - N/A   Clear
2:00 PM 76 °F 42 °F 20% 30.19 in 12 mi ESE 5.8 mph - -   Partly Cloudy
2:00 PM 75.2 °F 46.4 °F 36% 30.18 in - Variable 4.6 mph - N/A   Clear
2:30 PM 75.2 °F 48.2 °F 38% 30.18 in - East 9.2 mph - N/A   Clear
3:00 PM 75.2 °F 50.0 °F 41% 30.15 in - Variable 3.5 mph - N/A   Clear
3:30 PM 75.2 °F 51.8 °F 44% 30.15 in - ESE 8.1 mph - N/A   Clear
4:00 PM 75.2 °F 53.6 °F 47% 30.15 in - East 9.2 mph - N/A   Clear
4:30 PM 73.4 °F 53.6 °F 50% 30.15 in - East 10.4 mph - N/A   Clear
5:00 PM 73.4 °F 57.2 °F 57% 30.15 in 6.2 mi East 13.8 mph - N/A   Partly Cloudy
5:30 PM 73.4 °F 57.2 °F 57% 30.15 in 6.2 mi ESE 10.4 mph - N/A   Partly Cloudy
6:00 PM 71.6 °F 59.0 °F 64% 30.15 in 6.2 mi ESE 11.5 mph - N/A   Partly Cloudy
6:30 PM 71.6 °F 59.0 °F 64% 30.15 in 6.2 mi East 10.4 mph - N/A   Partly Cloudy
7:00 PM 69.8 °F 57.2 °F 64% 30.15 in 6.2 mi East 9.2 mph - N/A   Partly Cloudy
7:30 PM 69.8 °F 59.0 °F 68% 30.15 in 6.2 mi East 8.1 mph - N/A   Partly Cloudy
8:00 PM 68 °F 54 °F 51% 30.18 in 12 mi East 4.6 mph - -   Scattered Clouds
8:00 PM 69.8 °F 57.2 °F 64% 30.18 in 6.2 mi East 3.5 mph - N/A   Partly Cloudy
8:30 PM 68.0 °F 57.2 °F 68% 30.18 in 6.2 mi East 3.5 mph - N/A   Partly Cloudy
9:00 PM 68.0 °F 57.2 °F 68% 30.18 in 6.2 mi Calm Calm - N/A   Partly Cloudy
9:30 PM 68.0 °F 55.4 °F 64% 30.18 in 6.2 mi Calm Calm - N/A   Partly Cloudy
10:00 PM 66.2 °F 57.2 °F 73% 30.18 in 6.2 mi Calm Calm - N/A   Partly Cloudy
10:30 PM 66.2 °F 55.4 °F 68% 30.18 in 6.2 mi Calm Calm - N/A   Partly Cloudy
11:00 PM 66.2 °F 57.2 °F 73% 30.18 in 6.2 mi Calm Calm - N/A   Partly Cloudy
11:30 PM 62.6 °F 55.4 °F 77% 30.18 in 6.2 mi WNW 3.5 mph - N/A   Partly Cloudy